Weather History for Klamath Falls, OR

Change the Weather History Date:

Monday, September 16, 2013

  Actual Average Record
Temperature  
Mean Temperature 59 °F 57 °F  
Max Temperature 76 °F 76 °F 92 °F (1981)
Min Temperature 42 °F 39 °F 31 °F (1970)
Degree Days  
Heating Degree Days 6 8  
Month to date heating degree days 34 96  
Since 1 July heating degree days 102 215  
Cooling Degree Days 0 0  
Month to date cooling degree days 17 9  
Year to date cooling degree days 285 168  
Growing Degree Days 8 (Base 50)    
Moisture  
Dew Point 43 °F    
Average Humidity 62    
Maximum Humidity 96    
Minimum Humidity 23    
Precipitation  
Precipitation 0.00 in 0.02 in 0.51 in (1977)
Month to date precipitation T 0.30  
Year to date precipitation 4.79 10.04  
Sea Level Pressure  
Sea Level Pressure 29.88 in    
Wind  
Wind Speed 5 mph (WNW)    
Max Wind Speed 18 mph    
Max Gust Speed 22 mph    
Visibility 10 miles    
Events      
T = Trace of Precipitation, MM = Missing Value Source: NWS Daily Summary

Daily Weather History Graph

Daily Weather History Graph

Search for Another Location

Airport:

Trip Planner

Search our weather history database for the weather conditions in past years. The results will help you decide how hot, cold, wet, or windy it might be!

Date:

Astronomy

Sep. 16, 2013 Rise Set
Actual Time 6:48 AM PDT 7:14 PM PDT
Civil Twilight 6:20 AM PDT 7:42 PM PDT
Nautical Twilight 5:47 AM PDT 8:15 PM PDT
Astronomical Twilight 5:13 AM PDT 8:48 PM PDT
Moon 5:28 PM PDT (9/16) 3:38 AM PDT (9/16)
Length of Visible Light 13h 21m
Length of Day
12h 25m
Waxing Gibbous, 91% of the Moon is Illuminated
Sep 16
Waxing Gibbous
Sep 19
Full
Sep 26
Last Quarter
Oct 4
New
Oct 11
First Quarter

Hourly Weather History & Observations

Time (PDT) Temp. Windchill Dew Point Humidity Pressure Visibility Wind Dir Wind Speed Gust Speed Precip Events Conditions
12:53 AM 51.1 °F - 45.0 °F 80% 29.86 in 10.0 mi West 8.1 mph - N/A   Clear
1:53 AM 48.0 °F - 44.1 °F 86% 29.87 in 10.0 mi Calm Calm - N/A   Clear
2:53 AM 46.9 °F - 43.0 °F 86% 29.88 in 10.0 mi Calm Calm - N/A   Partly Cloudy
3:53 AM 46.9 °F - 44.1 °F 90% 29.88 in 10.0 mi Calm Calm - N/A   Mostly Cloudy
4:53 AM 44.1 °F 41.5 °F 42.1 °F 93% 29.90 in 10.0 mi East 4.6 mph - N/A   Partly Cloudy
5:53 AM 45.0 °F - 43.0 °F 93% 29.91 in 10.0 mi Calm Calm - N/A   Scattered Clouds
6:53 AM 43.0 °F - 41.0 °F 93% 29.93 in 10.0 mi Calm Calm - N/A   Scattered Clouds
7:09 AM 42.8 °F - 41.0 °F 93% 30.01 in 1.5 mi Calm Calm - N/A   Partly Cloudy
7:16 AM 42.8 °F - 41.0 °F 93% 30.01 in 10.0 mi Calm Calm - N/A   Partly Cloudy
7:53 AM 48.0 °F - 45.0 °F 89% 29.95 in 10.0 mi Calm Calm - N/A   Unknown
8:53 AM 52.0 °F - 46.9 °F 83% 29.94 in 10.0 mi SSE 3.5 mph - N/A   Scattered Clouds
9:53 AM 57.9 °F - 46.9 °F 67% 29.95 in 10.0 mi Calm Calm - N/A   Partly Cloudy
10:53 AM 62.1 °F - 48.0 °F 60% 29.93 in 10.0 mi Calm Calm - N/A   Scattered Clouds
11:53 AM 66.0 °F - 46.0 °F 48% 29.91 in 10.0 mi ESE 3.5 mph - N/A   Partly Cloudy
12:53 PM 68.0 °F - 46.0 °F 45% 29.90 in 10.0 mi Variable 4.6 mph - N/A   Partly Cloudy
1:53 PM 72.0 °F - 45.0 °F 38% 29.88 in 10.0 mi SW 5.8 mph - N/A   Clear
2:53 PM 73.0 °F - 41.0 °F 31% 29.85 in 10.0 mi Calm Calm - N/A   Scattered Clouds
3:53 PM 73.9 °F - 39.0 °F 28% 29.83 in 10.0 mi West 8.1 mph 16.1 mph N/A   Scattered Clouds
4:53 PM 75.0 °F - 36.0 °F 24% 29.81 in 10.0 mi West 11.5 mph - N/A   Partly Cloudy
5:34 PM 73.4 °F - 39.2 °F 29% 29.89 in 10.0 mi NW 12.7 mph - N/A   Partly Cloudy
5:53 PM 73.0 °F - 41.0 °F 31% 29.81 in 10.0 mi NNW 13.8 mph - N/A   Partly Cloudy
6:53 PM 68.0 °F - 43.0 °F 40% 29.82 in 10.0 mi NNW 16.1 mph - N/A   Scattered Clouds
7:53 PM 66.0 °F - 39.9 °F 38% 29.81 in 10.0 mi NNW 15.0 mph - N/A   Clear
8:53 PM 64.0 °F - 42.1 °F 45% 29.81 in 10.0 mi NW 13.8 mph - N/A   Clear
9:53 PM 63.0 °F - 45.0 °F 52% 29.80 in 10.0 mi Variable 6.9 mph - N/A   Clear
10:53 PM 57.9 °F - 44.1 °F 60% 29.80 in 10.0 mi West 5.8 mph - N/A   Clear
11:53 PM 55.9 °F - 44.1 °F 64% 29.79 in 10.0 mi WNW 5.8 mph - N/A   Clear